Location: ??
(35.4627°N, 139.3695°E)
Time: 13:24:54
(UTC+00:00)

NOSS 3-2 (A) - Pass Details

Date: 25 November 2020
Orbit: 791 x 1417 km, 63.4° (Epoch: 20 December)

Event Time Altitude Azimuth Distance (km) Brightness Sun altitude
Exits shadow 19:53:13 21° 318° (NW) 2,555 5.2 -19.2°
Maximum altitude 19:58:57 64° 244° (WSW) 1,477 4.2 -18.0°
Drops below altitude 10° 20:07:29 10° 165° (SSE) 3,492 6.8 -16.3°
Sets 20:10:29 0° 162° (SSE) 4,476 7.4 -15.7°
